Year,Month,Day,Hour,Minute,Value (Times are PST for windspeed in km/hr)
2019,04,06,00,00,6.60
2019,04,06,00,01,5.60
2019,04,06,00,02,6.60
2019,04,06,00,03,5.30
2019,04,06,00,04,10.30
2019,04,06,00,05,10.90
2019,04,06,00,06,9.20
2019,04,06,00,07,11.30
2019,04,06,00,08,5.40
2019,04,06,00,09,5.90
2019,04,06,00,10,8.60
2019,04,06,00,11,9.70
2019,04,06,00,12,9.90
2019,04,06,00,13,13.90
2019,04,06,00,14,14.30
2019,04,06,00,15,12.20
2019,04,06,00,16,13.90
2019,04,06,00,17,7.40
2019,04,06,00,18,11.80
2019,04,06,00,19,10.70
2019,04,06,00,20,6.30
2019,04,06,00,21,6.70
2019,04,06,00,22,7.40
2019,04,06,00,23,10.20
2019,04,06,00,24,8.90
2019,04,06,00,25,7.70
2019,04,06,00,26,6.00
2019,04,06,00,27,6.20
2019,04,06,00,28,7.10
2019,04,06,00,29,8.70
2019,04,06,00,30,6.80
2019,04,06,00,31,9.00
2019,04,06,00,32,11.00
2019,04,06,00,33,2.30
2019,04,06,00,34,2.20
2019,04,06,00,35,3.80
2019,04,06,00,36,7.80
2019,04,06,00,37,7.40
2019,04,06,00,38,7.50
2019,04,06,00,39,4.40
2019,04,06,00,40,2.60
2019,04,06,00,41,4.30
2019,04,06,00,42,6.20
2019,04,06,00,43,7.50
2019,04,06,00,44,9.10
2019,04,06,00,45,9.10
2019,04,06,00,46,4.90
2019,04,06,00,47,5.90
2019,04,06,00,48,3.70
2019,04,06,00,49,5.30
2019,04,06,00,50,7.40
2019,04,06,00,51,1.60
2019,04,06,00,52,2.40
2019,04,06,00,53,3.80
2019,04,06,00,54,7.90
2019,04,06,00,55,11.10
2019,04,06,00,56,4.90
2019,04,06,00,57,6.10
2019,04,06,00,58,4.40
2019,04,06,00,59,5.20
2019,04,06,01,00,11.60
2019,04,06,01,01,5.30
2019,04,06,01,02,2.10
2019,04,06,01,03,3.70
2019,04,06,01,04,8.10
2019,04,06,01,05,4.20
2019,04,06,01,06,4.70
2019,04,06,01,07,2.80
2019,04,06,01,08,3.50
2019,04,06,01,09,5.20
2019,04,06,01,10,0.00
2019,04,06,01,11,0.60
2019,04,06,01,12,2.60
2019,04,06,01,13,3.00
2019,04,06,01,14,4.90
2019,04,06,01,15,3.80
2019,04,06,01,16,5.80
2019,04,06,01,17,4.00
2019,04,06,01,18,4.80
2019,04,06,01,19,8.20
2019,04,06,01,20,5.50
2019,04,06,01,21,6.70
2019,04,06,01,22,5.30
2019,04,06,01,23,4.90
2019,04,06,01,24,0.20
2019,04,06,01,25,4.10
2019,04,06,01,26,5.50
2019,04,06,01,27,3.80
2019,04,06,01,28,6.10
2019,04,06,01,29,3.70
2019,04,06,01,30,2.90
2019,04,06,01,31,3.00
2019,04,06,01,32,3.30
2019,04,06,01,33,3.30
2019,04,06,01,34,2.70
2019,04,06,01,35,0.60
2019,04,06,01,36,2.40
2019,04,06,01,37,2.40
2019,04,06,01,38,1.90
2019,04,06,01,39,0.20
2019,04,06,01,40,0.00
2019,04,06,01,41,0.90
2019,04,06,01,42,4.80
2019,04,06,01,43,3.30
2019,04,06,01,44,0.20
2019,04,06,01,45,2.10
2019,04,06,01,46,7.20
2019,04,06,01,47,4.90
2019,04,06,01,48,5.50
2019,04,06,01,49,5.20
2019,04,06,01,50,3.60
2019,04,06,01,51,5.80
2019,04,06,01,52,5.80
2019,04,06,01,53,6.30
2019,04,06,01,54,5.10
2019,04,06,01,55,4.70
2019,04,06,01,56,3.80
2019,04,06,01,57,5.40
2019,04,06,01,58,6.20
2019,04,06,01,59,6.80
2019,04,06,02,00,3.60
2019,04,06,02,01,2.40
2019,04,06,02,02,3.00
2019,04,06,02,03,5.20
2019,04,06,02,04,3.70
2019,04,06,02,05,4.80
2019,04,06,02,06,3.80
2019,04,06,02,07,3.50
2019,04,06,02,08,4.10
2019,04,06,02,09,2.00
2019,04,06,02,10,4.20
2019,04,06,02,11,3.40
2019,04,06,02,12,1.60
2019,04,06,02,13,2.90
2019,04,06,02,14,2.80
2019,04,06,02,15,2.30
2019,04,06,02,16,0.60
2019,04,06,02,17,0.80
2019,04,06,02,18,1.70
2019,04,06,02,19,1.40
2019,04,06,02,20,3.50
2019,04,06,02,21,2.70
2019,04,06,02,22,2.10
2019,04,06,02,23,0.90
2019,04,06,02,24,1.70
2019,04,06,02,25,0.70
2019,04,06,02,26,0.10
2019,04,06,02,27,0.00
2019,04,06,02,28,1.00
2019,04,06,02,29,0.40
2019,04,06,02,30,1.40
2019,04,06,02,31,1.50
2019,04,06,02,32,0.30
2019,04,06,02,33,0.00
2019,04,06,02,34,0.90
2019,04,06,02,35,2.90
2019,04,06,02,36,2.60
2019,04,06,02,37,0.50
2019,04,06,02,38,1.80
2019,04,06,02,39,1.70
2019,04,06,02,40,3.30
2019,04,06,02,41,2.30
2019,04,06,02,42,0.70
2019,04,06,02,43,1.80
2019,04,06,02,44,2.10
2019,04,06,02,45,2.80
2019,04,06,02,46,5.60
2019,04,06,02,47,7.80
2019,04,06,02,48,6.30
2019,04,06,02,49,0.40
2019,04,06,02,50,2.50
2019,04,06,02,51,4.50
2019,04,06,02,52,5.70
2019,04,06,02,53,4.10
2019,04,06,02,54,0.70
2019,04,06,02,55,0.10
2019,04,06,02,56,2.40
2019,04,06,02,57,0.40
2019,04,06,02,58,0.00
2019,04,06,02,59,0.00
2019,04,06,03,00,0.00
2019,04,06,03,01,0.00
2019,04,06,03,02,0.00
2019,04,06,03,03,0.00
2019,04,06,03,04,0.00
2019,04,06,03,05,0.00
2019,04,06,03,06,0.00
2019,04,06,03,07,0.00
2019,04,06,03,08,0.00
2019,04,06,03,09,0.00
2019,04,06,03,10,0.00
2019,04,06,03,11,0.00
2019,04,06,03,12,0.00
2019,04,06,03,13,0.00
2019,04,06,03,14,0.00
2019,04,06,03,15,0.00
2019,04,06,03,16,0.00
2019,04,06,03,17,0.00
2019,04,06,03,18,0.00
2019,04,06,03,19,0.00
2019,04,06,03,20,3.60
2019,04,06,03,21,5.70
2019,04,06,03,22,4.10
2019,04,06,03,23,1.20
2019,04,06,03,24,1.00
2019,04,06,03,25,0.00
2019,04,06,03,26,1.70
2019,04,06,03,27,2.00
2019,04,06,03,28,0.40
2019,04,06,03,29,3.20
2019,04,06,03,30,0.30
2019,04,06,03,31,0.10
2019,04,06,03,32,0.00
2019,04,06,03,33,0.00
2019,04,06,03,34,1.70
2019,04,06,03,35,5.30
2019,04,06,03,36,9.10
2019,04,06,03,37,4.20
2019,04,06,03,38,1.10
2019,04,06,03,39,0.50
2019,04,06,03,40,2.20
2019,04,06,03,41,3.90
2019,04,06,03,42,3.70
2019,04,06,03,43,5.50
2019,04,06,03,44,5.60
2019,04,06,03,45,3.30
2019,04,06,03,46,2.80
2019,04,06,03,47,4.20
2019,04,06,03,48,3.20
2019,04,06,03,49,2.90
2019,04,06,03,50,3.20
2019,04,06,03,51,4.30
2019,04,06,03,52,3.00
2019,04,06,03,53,0.10
2019,04,06,03,54,0.00
2019,04,06,03,55,0.60
2019,04,06,03,56,0.30
2019,04,06,03,57,0.00
2019,04,06,03,58,0.00
2019,04,06,03,59,0.00
2019,04,06,04,00,0.00
2019,04,06,04,01,2.20
2019,04,06,04,02,0.30
2019,04,06,04,03,0.00
2019,04,06,04,04,2.40
2019,04,06,04,05,3.50
2019,04,06,04,06,1.40
2019,04,06,04,07,2.10
2019,04,06,04,08,4.00
2019,04,06,04,09,2.00
2019,04,06,04,10,4.10
2019,04,06,04,11,1.80
2019,04,06,04,12,6.10
2019,04,06,04,13,9.50
2019,04,06,04,14,7.50
2019,04,06,04,15,4.30
2019,04,06,04,16,6.20
2019,04,06,04,17,8.80
2019,04,06,04,18,6.10
2019,04,06,04,19,3.10
2019,04,06,04,20,5.10
2019,04,06,04,21,6.30
2019,04,06,04,22,6.60
2019,04,06,04,23,4.90
2019,04,06,04,24,4.90
2019,04,06,04,25,3.60
2019,04,06,04,26,2.90
2019,04,06,04,27,7.70
2019,04,06,04,28,8.70
2019,04,06,04,29,8.70
2019,04,06,04,30,4.80
2019,04,06,04,31,2.70
2019,04,06,04,32,1.30
2019,04,06,04,33,2.90
2019,04,06,04,34,3.90
2019,04,06,04,35,5.60
2019,04,06,04,36,4.10
2019,04,06,04,37,3.30
2019,04,06,04,38,3.80
2019,04,06,04,39,3.30
2019,04,06,04,40,5.30
2019,04,06,04,41,5.50
2019,04,06,04,42,5.20
2019,04,06,04,43,4.50
2019,04,06,04,44,5.80
2019,04,06,04,45,4.30
2019,04,06,04,46,2.60
2019,04,06,04,47,4.20
2019,04,06,04,48,2.50
2019,04,06,04,49,6.30
2019,04,06,04,50,8.40
2019,04,06,04,51,7.30
2019,04,06,04,52,8.70
2019,04,06,04,53,7.40
2019,04,06,04,54,7.20
2019,04,06,04,55,4.50
2019,04,06,04,56,2.70
2019,04,06,04,57,2.60
2019,04,06,04,58,3.30
2019,04,06,04,59,4.50
2019,04,06,05,00,3.30
2019,04,06,05,01,0.90
2019,04,06,05,02,2.70
2019,04,06,05,03,2.50
2019,04,06,05,04,4.00
2019,04,06,05,05,5.00
2019,04,06,05,06,3.90
2019,04,06,05,07,4.80
2019,04,06,05,08,0.70
2019,04,06,05,09,3.30
2019,04,06,05,10,3.90
2019,04,06,05,11,1.40
2019,04,06,05,12,0.00
2019,04,06,05,13,1.10
2019,04,06,05,14,0.90
2019,04,06,05,15,1.40
2019,04,06,05,16,0.00
2019,04,06,05,17,1.30
2019,04,06,05,18,1.20
2019,04,06,05,19,0.00
2019,04,06,05,20,0.00
2019,04,06,05,21,0.00
2019,04,06,05,22,0.00
2019,04,06,05,23,0.00
2019,04,06,05,24,0.00
2019,04,06,05,25,0.00
2019,04,06,05,26,0.00
2019,04,06,05,27,1.00
2019,04,06,05,28,2.50
2019,04,06,05,29,4.00
2019,04,06,05,30,4.10
2019,04,06,05,31,3.30
2019,04,06,05,32,1.40
2019,04,06,05,33,0.20
2019,04,06,05,34,5.10
2019,04,06,05,35,6.00
2019,04,06,05,36,6.40
2019,04,06,05,37,5.00
2019,04,06,05,38,5.30
2019,04,06,05,39,6.10
2019,04,06,05,40,6.40
2019,04,06,05,41,2.70
2019,04,06,05,42,5.20
2019,04,06,05,43,5.40
2019,04,06,05,44,1.80
2019,04,06,05,45,3.70
2019,04,06,05,46,0.60
2019,04,06,05,47,0.30
2019,04,06,05,48,7.10
2019,04,06,05,49,6.30
2019,04,06,05,50,3.30
2019,04,06,05,51,3.90
2019,04,06,05,52,4.90
2019,04,06,05,53,1.90
2019,04,06,05,54,0.30
2019,04,06,05,55,2.30
2019,04,06,05,56,0.80
2019,04,06,05,57,1.80
2019,04,06,05,58,3.60
2019,04,06,05,59,1.50
2019,04,06,06,00,0.10
2019,04,06,06,01,0.00
2019,04,06,06,02,0.00
2019,04,06,06,03,0.00
2019,04,06,06,04,0.00
2019,04,06,06,05,0.00
2019,04,06,06,06,0.00
2019,04,06,06,07,0.00
2019,04,06,06,08,0.10
2019,04,06,06,09,1.40
2019,04,06,06,10,0.90
2019,04,06,06,11,0.00
2019,04,06,06,12,0.80
2019,04,06,06,13,0.30
2019,04,06,06,14,2.80
2019,04,06,06,15,4.60
2019,04,06,06,16,4.30
2019,04,06,06,17,4.10
2019,04,06,06,18,3.70
2019,04,06,06,19,4.50
2019,04,06,06,20,3.80
2019,04,06,06,21,3.30
2019,04,06,06,22,1.60
2019,04,06,06,23,0.20
2019,04,06,06,24,0.00
2019,04,06,06,25,1.80
2019,04,06,06,26,2.40
2019,04,06,06,27,0.80
2019,04,06,06,28,0.00
2019,04,06,06,29,2.80
2019,04,06,06,30,3.20
2019,04,06,06,31,1.50
2019,04,06,06,32,3.30
2019,04,06,06,33,2.30
2019,04,06,06,34,3.50
2019,04,06,06,35,4.70
2019,04,06,06,36,6.20
2019,04,06,06,37,2.80
2019,04,06,06,38,2.70
2019,04,06,06,39,3.30
2019,04,06,06,40,3.20
2019,04,06,06,41,2.00
2019,04,06,06,42,0.10
2019,04,06,06,43,0.00
2019,04,06,06,44,0.10
2019,04,06,06,45,0.30
2019,04,06,06,46,1.20
2019,04,06,06,47,0.20
2019,04,06,06,48,3.10
2019,04,06,06,49,2.70
2019,04,06,06,50,1.10
2019,04,06,06,51,0.30
2019,04,06,06,52,2.70
2019,04,06,06,53,3.10
2019,04,06,06,54,2.50
2019,04,06,06,55,2.90
2019,04,06,06,56,4.90
2019,04,06,06,57,8.80
2019,04,06,06,58,4.40
2019,04,06,06,59,2.20
2019,04,06,07,00,1.30
2019,04,06,07,01,1.50
2019,04,06,07,02,5.30
2019,04,06,07,03,6.80
2019,04,06,07,04,6.30
2019,04,06,07,05,4.90
2019,04,06,07,06,2.90
2019,04,06,07,07,2.60
2019,04,06,07,08,5.60
2019,04,06,07,09,1.10
2019,04,06,07,10,0.00
2019,04,06,07,11,0.00
2019,04,06,07,12,0.00
2019,04,06,07,13,0.00
2019,04,06,07,14,0.80
2019,04,06,07,15,7.90
2019,04,06,07,16,7.60
2019,04,06,07,17,4.40
2019,04,06,07,18,3.40
2019,04,06,07,19,3.80
2019,04,06,07,20,5.80
2019,04,06,07,21,3.10
2019,04,06,07,22,5.00
2019,04,06,07,23,2.80
2019,04,06,07,24,2.60
2019,04,06,07,25,3.40
2019,04,06,07,26,5.30
2019,04,06,07,27,5.20
2019,04,06,07,28,6.30
2019,04,06,07,29,7.20
2019,04,06,07,30,10.80
2019,04,06,07,31,10.60
2019,04,06,07,32,3.60
2019,04,06,07,33,1.70
2019,04,06,07,34,0.40
2019,04,06,07,35,1.20
2019,04,06,07,36,0.60
2019,04,06,07,37,4.40
2019,04,06,07,38,2.20
2019,04,06,07,39,4.90
2019,04,06,07,40,3.20
2019,04,06,07,41,5.50
2019,04,06,07,42,4.30
2019,04,06,07,43,4.00
2019,04,06,07,44,1.80
2019,04,06,07,45,1.40
2019,04,06,07,46,0.20
2019,04,06,07,47,1.80
2019,04,06,07,48,0.00
2019,04,06,07,49,2.60
2019,04,06,07,50,0.50
2019,04,06,07,51,0.70
2019,04,06,07,52,0.10
2019,04,06,07,53,2.90
2019,04,06,07,54,5.80
2019,04,06,07,55,9.00
2019,04,06,07,56,13.40
2019,04,06,07,57,11.00
2019,04,06,07,58,8.00
2019,04,06,07,59,5.70
2019,04,06,08,00,2.60
2019,04,06,08,01,5.20
2019,04,06,08,02,4.80
2019,04,06,08,03,5.10
2019,04,06,08,04,4.50
2019,04,06,08,05,4.70
2019,04,06,08,06,2.20
2019,04,06,08,07,1.90
2019,04,06,08,08,4.50
2019,04,06,08,09,5.30
2019,04,06,08,10,6.00
2019,04,06,08,11,4.80
2019,04,06,08,12,3.50
2019,04,06,08,13,4.70
2019,04,06,08,14,3.30
2019,04,06,08,15,4.80
2019,04,06,08,16,8.00
2019,04,06,08,17,8.40
2019,04,06,08,18,6.60
2019,04,06,08,19,8.70
2019,04,06,08,20,8.70
2019,04,06,08,21,5.50
2019,04,06,08,22,4.00
2019,04,06,08,23,7.80
2019,04,06,08,24,4.70
2019,04,06,08,25,4.90
2019,04,06,08,26,3.80
2019,04,06,08,27,2.90
2019,04,06,08,28,4.80
2019,04,06,08,29,5.10
2019,04,06,08,30,8.10
2019,04,06,08,31,6.00
2019,04,06,08,32,5.60
2019,04,06,08,33,3.90
2019,04,06,08,34,1.80
2019,04,06,08,35,2.10
2019,04,06,08,36,3.60
2019,04,06,08,37,4.80
2019,04,06,08,38,2.80
2019,04,06,08,39,1.60
2019,04,06,08,40,4.10
2019,04,06,08,41,7.40
2019,04,06,08,42,6.70
2019,04,06,08,43,1.90
2019,04,06,08,44,0.10
2019,04,06,08,45,0.30
2019,04,06,08,46,2.90
2019,04,06,08,47,2.40
2019,04,06,08,48,0.80
2019,04,06,08,49,3.80
2019,04,06,08,50,5.30
2019,04,06,08,51,2.60
2019,04,06,08,52,1.70
2019,04,06,08,53,2.80
2019,04,06,08,54,3.50
2019,04,06,08,55,4.20
2019,04,06,08,56,6.20
2019,04,06,08,57,7.90
2019,04,06,08,58,6.00
2019,04,06,08,59,7.10
2019,04,06,09,00,7.30
2019,04,06,09,01,4.20
2019,04,06,09,02,1.30
2019,04,06,09,03,4.20
2019,04,06,09,04,1.70
2019,04,06,09,05,4.30
2019,04,06,09,06,3.80
2019,04,06,09,07,1.40
2019,04,06,09,08,0.90
2019,04,06,09,09,3.80
2019,04,06,09,10,1.40
2019,04,06,09,11,1.10
2019,04,06,09,12,0.00
2019,04,06,09,13,0.70
2019,04,06,09,14,1.60
2019,04,06,09,15,0.60
2019,04,06,09,16,2.00
2019,04,06,09,17,2.80
2019,04,06,09,18,3.80
2019,04,06,09,19,4.70
2019,04,06,09,20,3.70
2019,04,06,09,21,0.80
2019,04,06,09,22,2.60
2019,04,06,09,23,2.90
2019,04,06,09,24,3.00
2019,04,06,09,25,3.00
2019,04,06,09,26,4.00
2019,04,06,09,27,3.20
2019,04,06,09,28,0.70
2019,04,06,09,29,0.60
2019,04,06,09,30,0.80
2019,04,06,09,31,0.00
2019,04,06,09,32,0.00
2019,04,06,09,33,0.00
2019,04,06,09,34,0.00
2019,04,06,09,35,0.00
2019,04,06,09,36,0.00
2019,04,06,09,37,0.80
2019,04,06,09,38,1.60
2019,04,06,09,39,3.40
2019,04,06,09,40,5.10
2019,04,06,09,41,3.00
2019,04,06,09,42,0.00
2019,04,06,09,43,0.00
2019,04,06,09,44,2.40
2019,04,06,09,45,2.90
2019,04,06,09,46,1.10
2019,04,06,09,47,2.70
2019,04,06,09,48,5.90
2019,04,06,09,49,7.80
2019,04,06,09,50,4.10
2019,04,06,09,51,1.10
2019,04,06,09,52,3.10
2019,04,06,09,53,5.30
2019,04,06,09,54,7.30
2019,04,06,09,55,9.30
2019,04,06,09,56,6.10
2019,04,06,09,57,6.90
2019,04,06,09,58,5.20
2019,04,06,09,59,4.40
2019,04,06,10,00,3.40
2019,04,06,10,01,12.20
2019,04,06,10,02,8.00
2019,04,06,10,03,3.90
2019,04,06,10,04,7.00
2019,04,06,10,05,7.30
2019,04,06,10,06,10.90
2019,04,06,10,07,10.10
2019,04,06,10,08,9.00
2019,04,06,10,09,6.70
2019,04,06,10,10,1.40
2019,04,06,10,11,1.70
2019,04,06,10,12,2.10
2019,04,06,10,13,3.10
2019,04,06,10,14,2.90
2019,04,06,10,15,3.30
2019,04,06,10,16,2.40
2019,04,06,10,17,2.80
2019,04,06,10,18,2.00
2019,04,06,10,19,2.40
2019,04,06,10,20,3.20
2019,04,06,10,21,3.80
2019,04,06,10,22,11.10
2019,04,06,10,23,14.70
2019,04,06,10,24,18.30
2019,04,06,10,25,16.00
2019,04,06,10,26,17.20
2019,04,06,10,27,18.00
2019,04,06,10,28,12.00
2019,04,06,10,29,13.20
2019,04,06,10,30,21.30
2019,04,06,10,31,18.60
2019,04,06,10,32,12.90
2019,04,06,10,33,14.50
2019,04,06,10,34,12.40
2019,04,06,10,35,12.00
2019,04,06,10,36,13.40
2019,04,06,10,37,14.20
2019,04,06,10,38,10.70
2019,04,06,10,39,8.00
2019,04,06,10,40,18.40
2019,04,06,10,41,12.70
2019,04,06,10,42,19.30
2019,04,06,10,43,11.30
2019,04,06,10,44,15.80
2019,04,06,10,45,18.80
2019,04,06,10,46,16.60
2019,04,06,10,47,9.60
2019,04,06,10,48,11.70
2019,04,06,10,49,14.00
2019,04,06,10,50,20.70
2019,04,06,10,51,19.00
2019,04,06,10,52,14.20
2019,04,06,10,53,11.80
2019,04,06,10,54,11.50
2019,04,06,10,55,12.90
2019,04,06,10,56,5.30
2019,04,06,10,57,12.10
2019,04,06,10,58,9.30
2019,04,06,10,59,7.30
2019,04,06,11,00,7.80
2019,04,06,11,01,8.50
2019,04,06,11,02,10.90
2019,04,06,11,03,8.40
2019,04,06,11,04,10.80
2019,04,06,11,05,13.60
2019,04,06,11,06,11.90
2019,04,06,11,07,14.50
2019,04,06,11,08,11.00
2019,04,06,11,09,7.70
2019,04,06,11,10,16.30
2019,04,06,11,11,9.80
2019,04,06,11,12,7.30
2019,04,06,11,13,8.70
2019,04,06,11,14,7.90
2019,04,06,11,15,7.40
2019,04,06,11,16,12.30
2019,04,06,11,17,11.30
2019,04,06,11,18,8.90
2019,04,06,11,19,6.40
2019,04,06,11,20,6.60
2019,04,06,11,21,6.60
2019,04,06,11,22,9.60
2019,04,06,11,23,11.70
2019,04,06,11,24,5.40
2019,04,06,11,25,8.00
2019,04,06,11,26,7.60
2019,04,06,11,27,8.40
2019,04,06,11,28,13.60
2019,04,06,11,29,7.40
2019,04,06,11,30,12.60
2019,04,06,11,31,9.70
2019,04,06,11,32,12.80
2019,04,06,11,33,16.00
2019,04,06,11,34,25.40
2019,04,06,11,35,20.80
2019,04,06,11,36,12.80
2019,04,06,11,37,23.90
2019,04,06,11,38,21.70
2019,04,06,11,39,25.90
2019,04,06,11,40,17.10
2019,04,06,11,41,25.10
2019,04,06,11,42,19.70
2019,04,06,11,43,17.40
2019,04,06,11,44,18.60
2019,04,06,11,45,19.70
2019,04,06,11,46,10.60
2019,04,06,11,47,14.50
2019,04,06,11,48,25.40
2019,04,06,11,49,13.00
2019,04,06,11,50,24.00
2019,04,06,11,51,23.80
2019,04,06,11,52,28.40
2019,04,06,11,53,18.00
2019,04,06,11,54,9.80
2019,04,06,11,55,23.80
2019,04,06,11,56,14.70
2019,04,06,11,57,13.30
2019,04,06,11,58,21.20
2019,04,06,11,59,15.70
2019,04,06,12,00,13.60
2019,04,06,12,01,14.00
2019,04,06,12,02,12.50
2019,04,06,12,03,10.10
2019,04,06,12,04,2.60
2019,04,06,12,05,6.00
2019,04,06,12,06,6.70
2019,04,06,12,07,13.40
2019,04,06,12,08,7.80
2019,04,06,12,09,10.90
2019,04,06,12,10,14.60
2019,04,06,12,11,14.00
2019,04,06,12,12,13.80
2019,04,06,12,13,6.90
2019,04,06,12,14,12.50
2019,04,06,12,15,11.00
2019,04,06,12,16,11.50
2019,04,06,12,17,7.70
2019,04,06,12,18,2.70
2019,04,06,12,19,6.40
2019,04,06,12,20,6.40
2019,04,06,12,21,8.20
2019,04,06,12,22,7.10
2019,04,06,12,23,6.80
2019,04,06,12,24,5.20
2019,04,06,12,25,8.50
2019,04,06,12,26,8.70
2019,04,06,12,27,6.90
2019,04,06,12,28,3.50
2019,04,06,12,29,4.10
2019,04,06,12,30,6.90
2019,04,06,12,31,15.80
2019,04,06,12,32,12.00
2019,04,06,12,33,15.00
2019,04,06,12,34,16.10
2019,04,06,12,35,13.40
2019,04,06,12,36,13.20
2019,04,06,12,37,10.30
2019,04,06,12,38,11.20
2019,04,06,12,39,11.10
2019,04,06,12,40,10.90
2019,04,06,12,41,12.30
2019,04,06,12,42,13.30
2019,04,06,12,43,11.70
2019,04,06,12,44,7.10
2019,04,06,12,45,8.20
2019,04,06,12,46,13.10
2019,04,06,12,47,17.50
2019,04,06,12,48,14.00
2019,04,06,12,49,17.40
2019,04,06,12,50,19.70
2019,04,06,12,51,13.90
2019,04,06,12,52,19.30
2019,04,06,12,53,16.40
2019,04,06,12,54,14.40
2019,04,06,12,55,13.60
2019,04,06,12,56,12.90
2019,04,06,12,57,18.20
2019,04,06,12,58,19.00
2019,04,06,12,59,25.80
2019,04,06,13,00,27.90
2019,04,06,13,01,22.40
2019,04,06,13,02,26.50
2019,04,06,13,03,23.70
2019,04,06,13,04,22.00
2019,04,06,13,05,13.30
2019,04,06,13,06,14.50
2019,04,06,13,07,26.10
2019,04,06,13,08,24.50
2019,04,06,13,09,30.70
2019,04,06,13,10,21.40
2019,04,06,13,11,21.50
2019,04,06,13,12,20.60
2019,04,06,13,13,18.10
2019,04,06,13,14,15.80
2019,04,06,13,15,14.70
2019,04,06,13,16,13.40
2019,04,06,13,17,20.40
2019,04,06,13,18,20.30
2019,04,06,13,19,31.60
2019,04,06,13,20,28.70
2019,04,06,13,21,28.10
2019,04,06,13,22,28.30
2019,04,06,13,23,17.00
2019,04,06,13,24,12.40
2019,04,06,13,25,23.60
2019,04,06,13,26,23.20
2019,04,06,13,27,34.90
2019,04,06,13,28,17.40
2019,04,06,13,29,23.40
2019,04,06,13,30,18.90
2019,04,06,13,31,14.30
2019,04,06,13,32,18.80
2019,04,06,13,33,18.20
2019,04,06,13,34,21.00
2019,04,06,13,35,26.50
2019,04,06,13,36,49.30
2019,04,06,13,37,35.30
2019,04,06,13,38,27.20
2019,04,06,13,39,17.60
2019,04,06,13,40,22.90
2019,04,06,13,41,26.60
2019,04,06,13,42,22.20
2019,04,06,13,43,23.40
2019,04,06,13,44,27.10
2019,04,06,13,45,27.80
2019,04,06,13,46,23.00
2019,04,06,13,47,13.20
2019,04,06,13,48,22.20
2019,04,06,13,49,20.30
2019,04,06,13,50,32.10
2019,04,06,13,51,26.40
2019,04,06,13,52,27.90
2019,04,06,13,53,23.00
2019,04,06,13,54,28.30
2019,04,06,13,55,31.80
2019,04,06,13,56,31.20
2019,04,06,13,57,26.80
2019,04,06,13,58,26.70
2019,04,06,13,59,28.00
2019,04,06,14,00,35.10
2019,04,06,14,01,29.80
2019,04,06,14,02,35.90
2019,04,06,14,03,38.30
2019,04,06,14,04,32.00
2019,04,06,14,05,31.90
2019,04,06,14,06,38.00
2019,04,06,14,07,31.20
2019,04,06,14,08,19.30
2019,04,06,14,09,23.90
2019,04,06,14,10,27.40
2019,04,06,14,11,34.60
2019,04,06,14,12,27.90
2019,04,06,14,13,19.40
2019,04,06,14,14,31.20
2019,04,06,14,15,24.60
2019,04,06,14,16,27.40
2019,04,06,14,17,31.30
2019,04,06,14,18,22.30
2019,04,06,14,19,31.50
2019,04,06,14,20,24.80
2019,04,06,14,21,29.80
2019,04,06,14,22,20.40
2019,04,06,14,23,21.40
2019,04,06,14,24,24.90
2019,04,06,14,25,25.40
2019,04,06,14,26,31.20
2019,04,06,14,27,32.30
2019,04,06,14,28,23.70
2019,04,06,14,29,20.10
2019,04,06,14,30,17.20
2019,04,06,14,31,17.70
2019,04,06,14,32,17.70
2019,04,06,14,33,17.00
2019,04,06,14,34,14.80
2019,04,06,14,35,25.30
2019,04,06,14,36,16.40
2019,04,06,14,37,17.80
2019,04,06,14,38,13.30
2019,04,06,14,39,9.20
2019,04,06,14,40,11.20
2019,04,06,14,41,18.40
2019,04,06,14,42,24.50
2019,04,06,14,43,28.10
2019,04,06,14,44,23.00
2019,04,06,14,45,15.70
2019,04,06,14,46,15.40
2019,04,06,14,47,14.70
2019,04,06,14,48,24.00
2019,04,06,14,49,16.60
2019,04,06,14,50,14.30
2019,04,06,14,51,7.70
2019,04,06,14,52,14.70
2019,04,06,14,53,14.20
2019,04,06,14,54,17.50
2019,04,06,14,55,21.40
2019,04,06,14,56,14.50
2019,04,06,14,57,15.40
2019,04,06,14,58,19.90
2019,04,06,14,59,16.70
2019,04,06,15,00,22.10
2019,04,06,15,01,15.60
2019,04,06,15,02,10.40
2019,04,06,15,03,5.70
2019,04,06,15,04,8.90
2019,04,06,15,05,7.30
2019,04,06,15,06,11.30
2019,04,06,15,07,7.60
2019,04,06,15,08,5.70
2019,04,06,15,09,5.40
2019,04,06,15,10,11.90
2019,04,06,15,11,11.60
2019,04,06,15,12,12.70
2019,04,06,15,13,4.80
2019,04,06,15,14,10.80
2019,04,06,15,15,11.40
2019,04,06,15,16,9.70
2019,04,06,15,17,11.30
2019,04,06,15,18,9.90
2019,04,06,15,19,17.90
2019,04,06,15,20,16.30
2019,04,06,15,21,14.40
2019,04,06,15,22,20.50
2019,04,06,15,23,17.40
2019,04,06,15,24,16.10
2019,04,06,15,25,28.40
2019,04,06,15,26,24.90
2019,04,06,15,27,25.10
2019,04,06,15,28,25.60
2019,04,06,15,29,15.60
2019,04,06,15,30,23.20
2019,04,06,15,31,27.70
2019,04,06,15,32,18.10
2019,04,06,15,33,14.50
2019,04,06,15,34,16.80
2019,04,06,15,35,15.00
2019,04,06,15,36,17.60
2019,04,06,15,37,20.50
2019,04,06,15,38,14.80
2019,04,06,15,39,14.50
2019,04,06,15,40,15.10
2019,04,06,15,41,15.10
2019,04,06,15,42,9.40
2019,04,06,15,43,14.40
2019,04,06,15,44,18.00
2019,04,06,15,45,18.30
2019,04,06,15,46,21.50
2019,04,06,15,47,29.40
2019,04,06,15,48,23.20
2019,04,06,15,49,19.10
2019,04,06,15,50,15.40
2019,04,06,15,51,15.40
2019,04,06,15,52,25.10
2019,04,06,15,53,22.10
2019,04,06,15,54,23.70
2019,04,06,15,55,25.30
2019,04,06,15,56,25.40
2019,04,06,15,57,24.60
2019,04,06,15,58,29.40
2019,04,06,15,59,27.40
2019,04,06,16,00,30.50
2019,04,06,16,01,32.00
2019,04,06,16,02,23.00
2019,04,06,16,03,16.40
2019,04,06,16,04,18.40
2019,04,06,16,05,18.50
2019,04,06,16,06,22.00
2019,04,06,16,07,24.80
2019,04,06,16,08,28.10
2019,04,06,16,09,23.30
2019,04,06,16,10,16.10
2019,04,06,16,11,21.00
2019,04,06,16,12,18.00
2019,04,06,16,13,13.30
2019,04,06,16,14,18.50
2019,04,06,16,15,15.50
2019,04,06,16,16,13.90
2019,04,06,16,17,26.60
2019,04,06,16,18,22.40
2019,04,06,16,19,26.20
2019,04,06,16,20,28.60
2019,04,06,16,21,19.20
2019,04,06,16,22,13.90
2019,04,06,16,23,27.40
2019,04,06,16,24,29.90
2019,04,06,16,25,27.20
2019,04,06,16,26,35.60
2019,04,06,16,27,23.90
2019,04,06,16,28,22.40
2019,04,06,16,29,34.10
2019,04,06,16,30,25.80
2019,04,06,16,31,26.40
2019,04,06,16,32,22.90
2019,04,06,16,33,29.80
2019,04,06,16,34,27.40
2019,04,06,16,35,25.40
2019,04,06,16,36,19.40
2019,04,06,16,37,26.40
2019,04,06,16,38,29.30
2019,04,06,16,39,26.90
2019,04,06,16,40,29.00
2019,04,06,16,41,20.70
2019,04,06,16,42,30.10
2019,04,06,16,43,35.00
2019,04,06,16,44,28.10
2019,04,06,16,45,12.60
2019,04,06,16,46,20.60
2019,04,06,16,47,24.40
2019,04,06,16,48,16.20
2019,04,06,16,49,16.70
2019,04,06,16,50,18.80
2019,04,06,16,51,32.00
2019,04,06,16,52,21.30
2019,04,06,16,53,21.70
2019,04,06,16,54,22.40
2019,04,06,16,55,31.00
2019,04,06,16,56,23.70
2019,04,06,16,57,17.30
2019,04,06,16,58,19.20
2019,04,06,16,59,16.50
2019,04,06,17,00,22.80
2019,04,06,17,01,19.10
2019,04,06,17,02,24.40
2019,04,06,17,03,16.00
2019,04,06,17,04,15.30
2019,04,06,17,05,20.00
2019,04,06,17,06,18.30
2019,04,06,17,07,17.50
2019,04,06,17,08,14.80
2019,04,06,17,09,17.80
2019,04,06,17,10,13.40
2019,04,06,17,11,10.20
2019,04,06,17,12,15.90
2019,04,06,17,13,20.30
2019,04,06,17,14,27.00
2019,04,06,17,15,31.70
2019,04,06,17,16,29.10
2019,04,06,17,17,22.40
2019,04,06,17,18,15.20
2019,04,06,17,19,12.70
2019,04,06,17,20,27.60
2019,04,06,17,21,23.20
2019,04,06,17,22,19.00
2019,04,06,17,23,19.50
2019,04,06,17,24,11.50
2019,04,06,17,25,8.80
2019,04,06,17,26,11.80
2019,04,06,17,27,12.90
2019,04,06,17,28,18.10
2019,04,06,17,29,13.40
2019,04,06,17,30,11.40
2019,04,06,17,31,14.00
2019,04,06,17,32,13.60
2019,04,06,17,33,16.20
2019,04,06,17,34,12.00
2019,04,06,17,35,8.30
2019,04,06,17,36,6.20
2019,04,06,17,37,12.20
2019,04,06,17,38,13.90
2019,04,06,17,39,19.40
2019,04,06,17,40,13.50
2019,04,06,17,41,11.10
2019,04,06,17,42,16.80
2019,04,06,17,43,21.40
2019,04,06,17,44,15.90
2019,04,06,17,45,17.40
2019,04,06,17,46,12.60
2019,04,06,17,47,13.50
2019,04,06,17,48,15.90